Simultaneous Nadir Overpasses (SNOs) Predictions

Prediction of SNOs between GOES-16 and NOAA-19 Satellite Orbit:

Table of predicted SNOs for the next 14.0 days since TLE Epoch: 4/5/2019
Index Date Time (GOES-16) GOES-16 Lat,Lon NOAA-19 Lat,Lon Distance(km) Time Diff (sec)
1 04/06/2019 09:37:41 -0.01, -75.20 -0.42, -73.45 200.04 80
2 04/08/2019 21:58:53 0.01, -75.21 -0.75, -78.47 372.47 80
3 04/09/2019 21:47:17 0.00, -75.21 -0.09, -75.63 48.55 80
4 04/10/2019 21:38:20 0.00, -75.21 0.56, -72.80 275.39 80
5 04/13/2019 09:59:29 0.00, -75.23 0.62, -77.80 294.52 80
6 04/14/2019 09:45:13 0.00, -75.23 -0.06, -74.97 29.77 80
7 04/15/2019 09:33:36 0.00, -75.24 -0.73, -72.14 354.23 80
8 04/17/2019 21:54:50 0.00, -75.26 -0.42, -77.17 217.22 80
9 04/18/2019 21:45:53 -0.00, -75.27 0.24, -74.33 107.89 80




NCC Satellite Simultaneous Nadir Overpasses (SNOs) Prediction Service
